Weather Roundup
Issued by NWS Springfield, MO

Home | Current Version | Previous Version | Text Only | Print | Product List | Glossary On
Versions: 1 2 3 4 5 6 7 8 9 10 11 12 13 14 15 16 17 18 19 20 21 22 23 24 25 26 27 28 29 30 31 32 33 34 35 36 37 38 39 40 41 42 43 44 45 46 47 48 49 50
000
NZUS99 KSGF 232007
HRRSGF

HOURLY WEATHER
NATIONAL WEATHER SERVICE SPRINGFIELD MO
300 PM CDT TUE SEP 23 2014

......SGF CWA......

CITY           SKY/WX    TMP DP  RH WIND       PRES   REMARKS
SPRINGFIELD    MOSUNNY   74  45  35 SE12      30.21F
JOPLIN         SUNNY     74  51  44 SE8       30.20F
WEST PLAINS    SUNNY     73  43  33 E3        30.25F
ROLLA          SUNNY     75  45  34 E7        30.23F
OSAGE BEACH    MOSUNNY   73  45  35 SE8       30.23F
BRANSON        MOSUNNY   77  45  31 SE6       30.23F

......SURROUNDING SGF CWA......

CITY           SKY/WX    TMP DP  RH WIND       PRES   REMARKS
CHANUTE        MOSUNNY   75  55  49 S14       30.17F
PARSONS        SUNNY     76  55  48 SE9       30.18F
COFFEYVILLE    SUNNY     77  54  44 S9G18     30.17F
EMPORIA        PTSUNNY   74  55  51 S12G21    30.14F
GROVE OK       SUNNY     77  50  38 S8        30.20F
ROGERS AR      MOSUNNY   74  46  36 E8        30.22F
SILOAM SPRINGS SUNNY     75  46  35 E6        30.21F
HARRISON AR    SUNNY     71  47  42 SE8       30.23F
NEAR YELLVILLE SUNNY     73  46  38 E6        30.22F

......KANSAS AND MISSOURI......

CITY           SKY/WX    TMP DP  RH WIND       PRES   REMARKS
KANSAS CTY INT PTSUNNY   71  53  52 S13       30.19F
DOWNTOWN KC    MOSUNNY   74  53  48 S8        30.19F
COLUMBIA       SUNNY     72  46  39 SE9G17    30.24F
SEDALIA        PTSUNNY   74  45  35 SE13G20   30.22F
ST JOSEPH      PTSUNNY   74  54  49 S13       30.18S
ST LOUIS       PTSUNNY   75  48  38 E5        30.27F
SPIRIT OF STL  MOSUNNY   72  48  42 SE6       30.25F
KIRKSVILLE     PTSUNNY   72  51  47 SE10      30.24F
WICHITA        PTSUNNY   80  51  36 S20       30.08F
TOPEKA         CLOUDY    75  54  47 SE13      30.14F
OLATHE         MOSUNNY   71  54  54 SE14G21   30.19F

......TENNESSEE......

CITY           SKY/WX    TMP DP  RH WIND       PRES   REMARKS
MEMPHIS        MOSUNNY   80  41  24 NE13G21   30.18F
NASHVILLE      MOSUNNY   77  48  35 VRB6      30.22F

......ARKANSAS.......

CITY           SKY/WX    TMP DP  RH WIND       PRES   REMARKS
FAYETTEVILLE   SUNNY     73  48  41 VRB5      30.20F
FT SMITH       SUNNY     77  49  37 E9        30.18F
LITTLE ROCK    MOSUNNY   79  44  28 NE3       30.19F

......OKLAHOMA.......

CITY           SKY/WX    TMP DP  RH WIND       PRES   REMARKS
TULSA          MOSUNNY   78  52  40 SE15      30.16F
PONCA CITY     SUNNY     80  51  36 SE18      30.12F
MCALESTER      SUNNY     79  47  32 E9        30.17F
OKLAHOMA CITY  MOSUNNY   81  52  36 SE15      30.13F

......IOWA............

CITY           SKY/WX    TMP DP  RH WIND       PRES   REMARKS
DES MOINES     CLOUDY    72  51  47 S13       30.19F
QUAD CITIES    SUNNY     74  46  36 SW9       30.26F

......ILLINOIS........

CITY           SKY/WX    TMP DP  RH WIND       PRES   REMARKS
QUINCY         PTSUNNY   72  47  40 SE8       30.25F
CHICAGO        MOSUNNY   71  46  40 CALM      30.30F




USA.gov is the U.S. government's official web portal to all federal, state and local government web resources and services.